DELTA 1 DEB, 21463

Orbit data source: Space-Track

DELTA 1 DEB, 21463 is space debris in SSO originally from a launch on Thu, 12 Jun 1975 UTC launched from the Air Force Western Test Range (AFWTR). Debris objects in space refer to the collection of defunct objects orbiting the Earth. Examples of debris include non-operational satellites, rocket bodies, and fragments generated from explosions, collisions, or faulty payload assembly.

Loading next visibility...
Identifier
21463, 1975-052EX
Orbit
SSO
Country
Flag of USUS
Related business
Manufacturer
Unknown
Mission
Spacecraft
Bus & Motor
Unknown
Mass
Unknown
Launch date (UTC)
1975-06-12 (50 years ago)
Launch vehicle
Unknown
Launch site
Air Force Western Test Range (AFWTR)
Object type
Payload
Rocket body
Debris
Shape & HBR
Unknown shape, 0.1 m
Radar Cross Section
Small (<0.1 m²)

Expand to show TLE details & history
Last TLE update: 22 hours ago

TLE from 22 hours ago
0 DELTA 1 DEB
1 21463U 75052EX  25287.23013719  .00000264  00000-0  40034-3 0  9991
2 21463  99.8572 157.4800 0154990 122.3601   3.5813 13.57049298702047
Epoch: 2025-10-14T05:31Z
TLE epoch observation values (Epoch: 2025-10-14T05:31:23.853Z)
Latitude
52.89963°
Longitude
-115.17964°
Altitude
940.098 km
Speed
7.444 km/s
True Right ascension
23h 22m 45s
True Declination
52° 44' 17"
Sunlit
Object was in full shadow at epoch
Visualization orbit readout
Latitude
Unknown
Longitude
Unknown
Altitude
Unknown
Speed
Unknown
Apparent Right ascension
Unknown
Apparent Declination
Unknown
Sunlit
N/A
Visualization observer readout
Local Sidereal Time
22:15:08
Azimuth
Unknown
Elevation
Unknown
Doppler factor
Unknown
Orbital elements
Apogee altitude
1,158.766 km
Perigee altitude
928.703 km
Semi-major axis
7,421.871 km
Eccentricity
0.0155
Inclination
99.8572°
RAAN
157.48°
Arg. of periapsis
122.3601°
True anomaly
3.69443°
Mean anomaly
3.5813°
Eccentric anomaly
3.63764°
Mean motion
3.39448 °/min
Orbital period
106.05 mins
BSTAR
0.00040034
Loading maneuver chart data...
Computing Atmospheric mass density...
Loading historical data...
Loading historical data...
Loading historical data...
Loading historical data...
Loading historical data...
Loading historical data...
Loading historical data...

Documentation

Showing up to 5 results
|